Theta_e
318 317 317 318 319 320 318 317 319 320 321 322 322 322 321 322 322 320 320 318 317 316 315 314 314 313 314 313 312 311 310 309
319 317 317 317 319 319 318 317 318 319 318 319 319 318 320 320 321 320 321 320 318 317 317 316 316 316 316 316 314 312 309 310
316 317 317 316 317 319 319 318 318 319 319 319 320 319 320 320 321 320 320 321 319 318 318 317 317 317 318 315 314 312 313 312
315 315 315 315 316 318 318 318 318 318 320 319 318 318 318 318 318 318 321 321 320 320 320 319 319 319 318 317 316 316 313 312
317 315 315 315 316 319 319 319 318 319 319 318 317 316 315 317 317 318 320 322 321 320 320 320 320 320 319 319 318 317 316 313
317 316 316 315 316 317 318 319 319 319 319 318 317 317 318 319 319 320 322 323 322 320 321 322 322 321 321 320 319 317 318 317
318 318 317 314 315 315 317 317 319 320 319 320 318 319 319 317 317 320 321 322 323 324 323 322 323 323 322 321 321 320 318 318
316 316 313 312 313 313 314 315 317 319 318 318 319 319 320 319 320 321 321 321 321 323 324 324 324 324 323 323 322 320 320 319
316 316 316 314 312 312 313 315 316 318 318 317 317 319 318 318 318 320 319 321 321 322 323 324 324 324 324 324 324 323 322 321
315 316 317 316 314 313 313 316 317 318 318 319 318 317 318 318 318 319 320 320 319 320 322 322 323 324 324 324 323 322 321 321
314 315 316 317 316 316 316 317 316 317 318 319 318 318 319 319 319 319 319 320 320 320 320 321 322 323 323 323 321 322 320 318
314 316 317 317 317 315 315 316 316 316 316 317 318 318 319 320 319 319 319 321 321 320 320 321 321 322 322 320 319 316 315 315
314 316 316 316 316 315 314 315 315 317 316 316 316 318 319 318 317 319 321 321 321 319 320 320 321 320 318 315 316 314 311 310
314 315 315 315 315 314 314 314 316 316 316 315 314 315 315 315 316 318 321 321 320 319 319 319 320 320 319 315 315 313 311 310
312 314 316 316 315 315 314 314 316 316 314 315 314 314 316 315 315 318 320 320 320 320 320 318 320 320 318 316 314 312 310 308
308 312 314 316 316 315 315 315 315 315 315 315 315 317 317 318 319 319 320 320 320 321 320 320 320 316 312 310 309 306 305 302
306 308 310 313 314 316 315 315 315 315 314 315 316 317 318 318 319 319 318 317 319 319 318 315 309 307 300 298 302 302 300 299
304 307 309 311 313 315 315 316 316 315 315 315 316 317 317 318 318 314 314 314 309 307 304 303 301 300 294 295 295 300 297 293
305 305 308 312 313 313 315 315 316 316 316 316 317 316 314 309 308 307 303 302 301 300 299 298 297 294 292 292 291 292 289 288
Wind_Speed
12 10 9 10 9 10 10 9 10 8 6 6 5 7 4 5 8 9 10 9 11 10 9 9 7 6 6 5 7 5 5 7
12 11 10 9 10 10 11 12 11 8 7 7 6 6 5 5 5 8 9 10 10 10 8 11 7 9 10 10 7 8 5 5
12 12 12 11 11 11 11 13 14 10 7 4 4 5 3 4 4 5 9 11 10 9 8 9 11 8 10 10 9 6 5 8
14 15 14 12 13 13 11 13 14 12 9 6 5 5 4 4 3 3 10 10 10 10 11 10 11 9 8 10 11 10 8 6
15 16 16 15 14 11 14 13 13 13 12 10 13 13 10 9 9 7 9 9 12 13 13 11 11 9 9 10 10 9 6 7
20 19 18 16 14 13 12 15 15 15 16 13 12 11 9 11 11 15 15 12 13 13 13 12 12 9 10 11 9 11 9 7
17 16 16 16 16 13 13 16 16 17 17 17 14 15 13 10 13 13 11 10 10 14 13 12 11 10 10 10 12 13 11 10
17 19 18 18 19 19 15 18 18 18 17 14 16 15 15 15 15 12 12 10 9 11 12 11 9 11 11 11 12 12 12 12
20 20 19 20 20 19 20 20 19 18 19 18 15 16 10 9 11 9 8 9 9 9 10 11 13 14 12 12 10 10 12 10
20 19 19 18 20 21 21 21 19 19 19 16 16 15 16 13 12 11 8 9 8 10 12 13 13 12 14 13 10 13 12 11
16 18 19 17 16 18 20 20 21 20 19 17 16 17 15 14 12 13 12 11 13 12 12 14 14 15 13 12 10 12 10 8
13 15 16 16 15 17 18 19 20 19 19 18 16 15 16 14 12 13 14 13 14 14 13 13 13 13 12 11 11 10 12 11
13 14 15 16 17 17 19 17 18 17 16 16 16 16 17 18 18 20 15 14 12 12 12 12 14 14 10 11 10 8 11 11
12 14 16 16 17 17 18 18 17 16 16 15 16 17 15 17 20 15 14 13 13 12 13 15 15 13 13 10 11 11 11 10
11 13 16 16 16 17 18 17 16 16 17 17 16 16 17 17 13 8 12 12 13 14 13 13 13 13 12 11 11 11 9 9
12 13 13 15 15 16 16 16 16 16 17 18 19 17 16 16 13 12 11 12 12 12 13 13 11 10 8 10 9 8 8 7
9 11 12 14 16 16 14 15 16 16 17 18 17 16 16 15 13 10 9 9 11 12 12 11 9 7 9 12 11 8 9 9
8 11 14 13 16 16 17 16 15 17 17 16 15 15 15 13 9 6 7 8 5 5 4 5 4 3 8 9 9 7 8 9
12 9 8 8 10 13 13 14 16 16 16 15 14 12 10 7 7 6 5 4 4 4 4 5 7 5 11 13 14 11 11 11
Wind_Direction
198 188 186 186 186 171 156 157 157 144 113 113 116 123 107 130 146 150 153 140 146 139 147 147 118 128 167 152 152 170 198 180
199 176 185 181 186 178 163 157 164 152 147 151 137 138 154 141 116 141 152 156 157 149 177 118 145 183 177 166 178 184 188 183
191 180 184 185 189 182 169 169 168 165 160 136 155 138 135 135 118 139 174 164 159 170 150 168 177 184 181 176 186 181 191 185
187 185 181 182 190 187 169 170 170 164 152 124 118 110 109 136 165 218 172 174 181 175 185 185 188 196 188 189 205 199 199 188
189 187 182 183 189 181 176 172 175 166 155 162 166 180 169 176 184 192 213 209 193 198 196 191 197 199 201 201 212 213 201 200
191 193 192 185 182 180 173 176 179 175 173 173 170 176 181 174 182 193 204 203 206 201 202 196 204 200 211 205 206 215 214 209
196 186 181 187 185 182 182 186 186 182 183 186 185 187 183 175 183 191 199 200 200 203 202 203 208 208 209 209 215 219 220 222
193 184 183 182 183 185 182 187 190 187 185 188 192 195 194 193 191 196 190 195 203 204 200 210 213 217 220 222 223 222 222 221
198 193 186 183 183 184 187 191 191 190 189 189 191 197 198 197 191 195 201 208 208 201 207 218 222 222 223 228 232 232 228 232
202 190 192 188 182 186 188 190 194 193 193 191 192 195 204 201 194 195 200 208 206 206 214 217 225 227 227 224 223 229 225 226
196 195 192 192 190 186 188 192 193 192 192 193 196 198 201 206 206 209 205 207 205 209 211 216 218 222 223 222 230 236 226 221
203 200 192 191 187 189 192 191 190 190 193 192 194 195 201 206 214 217 218 218 215 217 219 224 226 224 217 210 216 216 215 225
192 196 189 189 192 192 199 195 195 188 183 184 190 192 197 205 215 220 219 228 226 229 227 229 232 222 204 204 224 227 221 219
184 185 189 196 195 195 200 200 197 189 186 183 193 202 207 214 220 215 218 220 217 213 216 220 227 227 222 217 216 212 213 215
186 192 189 195 197 199 197 200 198 190 188 193 199 203 207 219 229 216 215 220 225 223 220 223 227 226 215 208 208 212 207 214
195 196 200 190 193 199 202 196 194 193 193 197 207 208 214 227 225 216 208 209 221 226 232 233 229 216 204 193 200 189 176 155
219 189 187 195 194 195 194 198 191 190 198 206 206 211 213 221 223 222 202 206 218 223 222 214 201 205 199 183 171 166 156 147
236 212 198 192 190 183 190 191 184 191 199 202 204 208 215 217 214 181 189 201 189 194 176 159 152 126 141 143 125 130 128 119
241 225 221 184 164 173 164 171 182 188 196 196 194 191 189 151 154 164 141 134 136 117 109 106 99 81 101 105 101 102 96 94